Location: Newark
(45.6000°N, 12.8833°E)
Time: 19:44:00
(UTC+00:00)

Vanguard 2 Rocket - Visible Passes

Search period start: 20 November 2019 00:00
Search period end: 30 November 2019 00:00
Orbit: 554 x 3326 km, 32.9° (Epoch: 20 November)

Date Brightness Start Highest point End Pass type
(mag) Time Alt. Az. Time Alt. Az. Time Alt. Az.
20 Nov 9.6 01:52:42 12° SE 01:52:42 12° SE 01:53:19 10° ESE visible
20 Nov 8.7 03:58:31 19° SW 04:00:52 22° S 04:07:44 10° SE visible
21 Nov 8.8 03:02:28 21° S 03:02:28 21° S 03:07:11 10° SE visible
21 Nov 9.4 05:10:46 10° SW 05:14:33 14° SSW 05:19:15 10° S visible
22 Nov 9.6 02:06:27 11° SE 02:06:27 11° SE 02:06:46 10° SE visible
22 Nov 9.0 04:12:16 13° SW 04:14:51 15° SSW 04:19:37 10° SSE visible
23 Nov 9.0 03:16:14 16° S 03:16:14 16° S 03:19:42 10° SSE visible
25 Nov 9.3 03:30:03 10° S 03:30:03 10° S 03:30:08 10° S visible
